This demonstration page uses our WeatherBlox Daily Observations layout. Learn more.

Left ArrowRight Arrow

Hourly Observations for February 3, 2017

Temp ( °F °C ) Dew Point ( °F °C ) Humidity (%) Winds ( mph kmh ) Pressure ( in mb ) Visibility ( mi km ) Precip ( " mm )
12:51 am 00:51 Clear 41 5 27 -2.8 57 57 E 5 7 30.06 1018 10 16 N/A
1:51 am 01:51 Clear 39 3.9 27 -2.8 62 62 SE 5 7 30.06 1018 10 16 N/A
2:51 am 02:51 Clear 39 3.9 28 -2.2 65 65 N N/A 30.05 1018 10 16 N/A
3:51 am 03:51 Clear 36 2.2 27 -2.8 70 70 N N/A 30.04 1017 10 16 N/A
4:51 am 04:51 Clear 38 3.3 26 -3.3 62 62 N N/A 30.05 1018 10 16 N/A
5:51 am 05:51 Clear 36 2.2 25 -3.9 64 64 SE 6 9 30.07 1018 10 16 N/A
6:51 am 06:51 Clear 34 1.1 26 -3.3 73 73 E 5 7 30.10 1019 10 16 N/A
7:51 am 07:51 Sunny 41 5 26 -3.3 55 55 SSE 9 15 30.10 1019 10 16 N/A
8:51 am 08:51 Sunny 49 9.4 27 -2.8 43 43 SE 8 13 30.11 1020 10 16 N/A
9:51 am 09:51 Sunny 55 12.8 26 -3.3 33 33 ESE 10 17 30.11 1020 10 16 N/A
10:51 am 10:51 Sunny 58 14.4 25 -3.9 28 28 SE 12 19 30.10 1019 10 16 N/A
11:51 am 11:51 Sunny 62 16.7 24 -4.4 23 23 SE 7 11 30.07 1018 10 16 N/A
12:51 pm 12:51 Sunny 65 18.3 25 -3.9 22 22 VRB 5 7 30.04 1017 10 16 N/A
1:51 pm 13:51 Sunny 66 18.9 25 -3.9 21 21 S 5 7 30.00 1016 10 16 N/A
2:51 pm 14:51 Sunny 69 20.6 26 -3.3 20 20 SE 6 9 29.98 1015 10 16 N/A
3:51 pm 15:51 Sunny 69 20.6 24 -4.4 18 18 N N/A 29.98 1015 10 16 N/A
4:51 pm 16:51 Sunny 68 20 25 -3.9 20 20 N N/A 29.98 1015 10 16 N/A
5:51 pm 17:51 Sunny 62 16.7 30 -1.1 30 30 W 7 11 30.00 1016 10 16 N/A
6:51 pm 18:51 Clear 58 14.4 30 -1.1 35 35 NW 5 7 30.01 1016 10 16 N/A
7:51 pm 19:51 Clear 55 12.8 30 -1.1 38 38 NW 6 9 30.01 1016 10 16 N/A
8:51 pm 20:51 Clear 52 11.1 29 -1.7 41 41 N N/A 30.01 1016 10 16 N/A
9:51 pm 21:51 Clear 48 8.9 29 -1.7 48 48 ESE 5 7 30.01 1016 10 16 N/A
10:51 pm 22:51 Clear 45 7.2 29 -1.7 54 54 N N/A 30.02 1017 10 16 N/A
11:51 pm 23:51 Clear with Light Rain 48 8.9 29 -1.7 48 48 NW 3 6 30.02 1017 10 16 N/A

Powered by AerisWeather